Location: Home
(42.5358°N, 72.7383°W)
Time: 22:07:16
(UTC-05:00)

Altair - Pass Details

Date: 11 December 2021
Orbit: 1501 x 1683 km, 47.2° (Epoch: 26 January)

Event Time Altitude Azimuth Distance (km) Brightness Sun altitude
Rises 17:27:27 0° 287° (WNW) 4,750 11.0 -12.4°
Reaches altitude 10° 17:30:35 10° 290° (WNW) 3,742 10.3 -12.9°
Maximum altitude 17:40:01 75° 16° (NNE) 1,564 7.4 -14.6°
Enters shadow 17:47:50 16° 101° (E) 3,212 8.7 -15.9°
